Location: Courtion
(46.8574°N, 7.0692°E)
Time: 09:13:19
(UTC+00:00)

Daily predictions for brighter satellites

Satellite Brightness Start Highest point End
(mag) Time Altitude Azimuth Time Altitude Azimuth Time Altitude Azimuth
Cosmos 1536 Rocket 3.5 17:59:48 10° N 18:04:09 75° E 18:08:28 10° SSE
Cosmos 1378 3.1 18:00:45 10° N 18:04:32 85° E 18:08:16 10° S
ATLAS 2AS CENTAUR R/B 3.0 17:59:02 10° NW 18:06:50 74° NE 18:13:59 10° SE
NOSS 0 Rocket 4.3 18:01:59 10° NNW 18:07:57 46° NE 18:13:55 10° SE
YAOGAN 1 3.1 18:07:26 10° S 18:11:44 65° WSW 18:16:04 10° NNW
CZ-4 R/B 2.6 18:08:53 10° S 18:12:36 45° W 18:16:25 10° NNW
USA 186 3.3 18:13:29 10° ESE 18:16:09 22° ENE 18:18:52 10° NNE
Cosmos 2327 Rocket 4.5 18:10:44 10° N 18:16:58 66° ENE 18:23:04 10° SSE
Nadezhda 1 Rocket 4.0 18:11:08 10° SSE 18:17:00 54° E 18:22:54 10° NNE
ASTEX 1 4.1 18:13:04 10° NNE 18:17:26 31° E 18:21:46 10° SSE
Cosmos 1461 2.7 18:15:21 10° SSW 18:19:21 83° SE 18:23:20 10° NE
Cosmos 1707 3.5 18:16:08 10° N 18:19:43 34° ENE 18:23:18 10° SE
SL-16 R/B 3.8 18:16:39 10° N 18:20:40 19° NE 18:24:38 10° E
COSMOS 2455 3.7 18:19:57 10° NW 18:25:48 53° WSW 18:31:36 10° S
Cosmos 2219 Rocket 2.2 18:20:35 10° NNW 18:26:13 90° E 18:31:50 10° SSE
Timation 2 Rocket 4.1 18:22:42 10° SSW 18:29:19 85° WNW 18:35:41 10° NNE
SJ-6B 3.7 18:27:12 10° SE 18:30:54 33° ENE 18:34:35 10° N
COSMO-SKYMED 1 4.4 18:28:12 10° N 18:32:10 35° WNW 18:36:07 10° SW
ERBS 4.3 18:30:14 10° NNW 18:32:48 19° NNE 18:35:13 11° ENE
Cosmos 1300 Rocket 4.4 18:29:46 10° SSW 18:34:00 54° WNW 18:38:14 10° N
COSMOS 2428 2.9 18:28:24 10° NNW 18:34:06 78° WSW 18:39:46 10° SSE
NOAA 11 4.3 18:29:43 10° SSE 18:35:13 83° WSW 18:40:45 10° NNW
Aureole 1 Rocket 3.7 18:30:06 10° NNW 18:35:20 63° WSW 18:39:16 10° S
H-2A R/B 2.8 18:33:14 12° SE 18:37:14 32° ENE 18:41:40 10° N
Cosmos 2360 Rocket 4.4 18:33:50 10° NW 18:38:27 26° WSW 18:43:03 10° SSW
ISS -2.1 18:36:42 10° S 18:38:56 17° SE 18:39:18 17° SE
MOS 1 4.3 18:33:54 10° SSE 18:39:34 73° ENE 18:45:16 10° NNW
SJ-11-01 4.4 18:37:51 10° SSE 18:42:30 58° ENE 18:47:11 10° N
CZ-2D R/B 4.2 18:40:09 10° S 18:43:50 50° W 18:47:33 10° NNW
Cosmos 1939 Rocket 3.4 18:41:10 10° S 18:44:57 58° W 18:48:48 10° NNW
Cosmos 1190 Rocket 4.2 18:45:03 10° NNW 18:50:14 53° ENE 18:54:14 16° SE
Lacrosse 5 rocket 2.7 18:48:18 10° S 18:49:55 17° SE 18:49:55 17° SE
SAR-Lupe-2 3.4 18:48:20 10° NNE 18:51:56 73° ESE 18:55:30 10° S
Cosmos 1544 3.5 18:50:25 10° SSW 18:53:58 62° W 18:57:34 10° N
Cosmos 2227 Rocket 2.8 18:49:12 10° SSE 18:54:10 33° ESE 18:59:10 10° NE
Cosmos 2219 3.3 18:49:56 10° S 18:55:31 56° ESE 19:01:09 10° NE
Cosmos 1455 Rocket 3.8 18:54:39 15° SSE 18:57:42 32° E 19:01:41 10° NNE
ARGOS 3.5 18:53:49 16° SE 18:57:53 47° ENE 19:03:02 10° N
Cosmos 2341 Rocket 4.0 18:52:53 10° N 18:59:08 68° E 19:05:18 10° SSE
Cosmos 2181 Rocket 4.2 18:55:18 10° SSE 19:01:14 48° E 19:07:17 10° NNE
CZ-2C R/B 3.5 18:57:20 10° NNE 19:01:49 70° ESE 19:06:13 10° S
Cosmos 389 Rocket 2.3 18:59:01 10° N 19:02:27 70° ENE 19:04:30 22° SSE
Cosmos 2297 Rocket 2.5 18:59:33 10° S 19:04:49 41° ESE 19:10:07 10° NE
Meteor 1-15 Rocket 4.2 18:59:28 10° S 19:05:09 64° E 19:10:58 10° NNE
Cosmos 2084 Rocket 4.2 19:02:17 10° S 19:06:16 33° ESE 19:07:33 27° E
GEOS 3 Rocket 4.1 19:01:21 10° SSE 19:06:19 57° SW 19:11:23 10° NW
Ariane Rocket 4.3 19:04:35 10° SSW 19:09:20 41° W 19:14:09 10° NNW
FREGAT/IRIS 4.0 19:11:29 10° SSW 19:14:06 36° W 19:16:45 10° NNW
NOSS 3-4 (A) 4.1 19:07:14 10° NW 19:14:14 71° SW 19:20:46 15° SSE
NOSS 3-4 (C) 4.1 19:07:21 10° NW 19:14:20 71° SW 19:20:50 15° SSE
Cosmos 1437 Rocket 3.4 19:10:52 10° N 19:14:22 34° ENE 19:14:27 34° ENE
Cosmos 614 Rocket 3.9 19:09:38 10° NNW 19:14:54 87° ENE 19:18:31 20° SSE
Cosmos 405 Rocket 2.5 19:11:20 10° S 19:14:58 61° E 19:18:39 10° NNE
Cosmos 1626 Rocket 4.5 19:12:39 10° NNE 19:16:25 28° ENE 19:16:27 28° ENE
Cosmos 2218 Rocket 4.1 19:11:12 10° N 19:17:30 57° ENE 19:21:36 22° SSE
MetOp-A 4.4 19:16:20 29° ESE 19:18:38 47° ENE 19:23:45 10° N
Cosmos 2056 Rocket 3.5 19:14:19 10° S 19:19:40 66° ESE 19:25:02 10° NNE
Okean 1 Rocket 4.4 19:15:49 10° SSW 19:19:56 42° WNW 19:24:06 10° N
Cosmos 2366 rocket 4.1 19:14:41 10° N 19:20:58 57° ENE 19:24:45 24° SSE
Cosmos 407 Rocket 3.5 19:16:19 10° NNW 19:21:28 80° WSW 19:25:02 20° SSE
Resurs 1-3 3.6 19:21:40 37° SE 19:23:08 58° ENE 19:27:27 10° N
GENESIS II 4.3 19:21:46 10° NNW 19:25:53 68° NE 19:26:44 51° ESE
Cosmos 2333 Rocket 3.9 19:22:15 10° NW 19:27:12 31° WSW 19:32:09 10° SSW
Meteor 1-4 Rocket 2.5 19:24:25 10° NNW 19:27:59 76° W 19:29:05 41° S
Meteor 2-17 Rocket 4.4 19:21:56 10° N 19:28:03 88° ENE 19:33:19 14° S
Meteor 1-24 Rocket 4.0 19:22:28 10° N 19:28:06 52° ENE 19:30:18 35° SE
Resurs 01 Rocket 1.8 19:29:23 45° ESE 19:30:13 53° ENE 19:34:33 10° N
In-Cosmos 22 4.2 19:25:21 10° NNW 19:30:43 77° W 19:35:25 14° S
SL-08 RB Rocket 3.7 19:29:16 40° SE 19:30:49 65° ENE 19:35:29 10° N
SL-8 Rocket 3.9 19:24:57 10° N 19:31:12 83° E 19:35:53 18° S
Cosmos 1624 Rocket 3.9 19:26:23 10° SSW 19:31:34 84° ESE 19:36:48 10° NNE
CZ-2C R/B 3.2 19:29:59 37° SE 19:31:55 58° ENE 19:37:20 10° N
RESURS DK-1 4.0 19:29:20 10° N 19:32:24 21° NE 19:32:24 21° NE
USA 234 4.4 19:28:44 10° ENE 19:34:37 37° N 19:40:30 10° WNW
ADEOS Rocket 3.4 19:27:23 10° NNE 19:34:43 71° ESE 19:42:28 10° S
Cosmos 2237 Rocket 2.5 19:29:10 10° NNW 19:34:51 67° WSW 19:38:28 23° S
SL-24 R/B 4.3 19:34:08 47° ESE 19:35:10 60° ENE 19:40:04 10° N
Cosmos 1602 Rocket 4.3 19:33:08 10° N 19:36:39 35° ENE 19:36:39 35° ENE
SL-8 R/B 3.8 19:33:34 10° W 19:38:21 72° N 19:39:50 43° ENE
Cosmos 1674 2.8 19:36:42 10° N 19:39:57 57° NE 19:39:57 57° NE
BREEZE-M DEB (TANK) 3.8 19:29:03 10° WNW 19:40:39 60° SW 19:41:49 43° SSE
Cosmos 1805 4.0 19:42:10 38° NE 19:42:10 38° NE 19:44:48 10° NNE
Cosmos 1954 Rocket 3.9 19:38:03 10° NNW 19:43:19 82° ENE 19:44:49 48° SSE
Cosmos 1980 4.3 19:38:41 10° NW 19:44:11 53° WSW 19:47:48 21° S
Cosmos 1959 Rocket 4.4 19:38:45 10° N 19:44:55 86° E 19:48:25 28° S
Cosmos 1140 Rocket 3.6 19:40:42 10° NNW 19:45:53 74° WSW 19:47:56 37° S
SPOT 3 Rocket 4.3 19:41:14 11° S 19:45:56 50° W 19:50:58 10° NNW
Spot 2 Rocket 3.7 19:45:58 47° E 19:46:18 47° ENE 19:51:08 10° N
USA 186 4.0 19:44:29 12° SSW 19:46:58 26° W 19:49:53 10° NW
Meteor 2-5 Rocket 3.8 19:44:36 10° NNW 19:50:27 80° W 19:53:38 29° S
ATLAS 2AS CENTAUR R/B 4.4 19:50:54 10° NW 19:57:09 29° WSW 20:02:58 10° SSW
KORONAS-FOTON 4.4 19:59:51 10° NNW 20:02:51 53° NNW 20:02:51 53° NNW
Meteor 1-22 Rocket 4.3 20:01:13 31° S 20:04:22 81° E 20:10:31 10° NNE
SL-16 R/B 2.1 19:59:56 10° NNW 20:05:39 87° ENE 20:06:31 66° SSE
ERBS 4.1 20:06:17 10° NW 20:08:14 31° NW 20:08:14 31° NW
Cosmos 1452 Rocket 4.1 20:15:45 44° NE 20:15:45 44° NE 20:19:22 10° NNE
ISS -0.8 20:11:59 10° WSW 20:12:15 12° WSW 20:12:15 12° WSW
H-2A R/B 3.3 20:13:51 20° SSW 20:16:35 35° W 20:21:13 10° NNW
SPOT 5 4.4 20:18:57 26° NNE 20:18:57 26° NNE 20:21:50 10° N
CZ-2C R/B 3.4 20:14:08 10° NNE 20:17:56 40° NE 20:17:56 40° NE
Cosmos 2082 3.6 20:15:04 10° SSW 20:20:49 86° WNW 20:26:35 10° NNE
Meteor 2-12 Rocket 4.4 20:22:00 10° N 20:27:50 68° ENE 20:27:50 68° ENE
Cosmos 1934 Rocket 4.4 20:26:35 10° N 20:31:34 46° NE 20:31:34 46° NE
MetOp-B 4.2 20:33:25 76° W 20:33:25 76° W 20:38:39 10° NNW
Cosmos 2227 Rocket 3.2 20:32:40 10° SW 20:38:05 44° NW 20:43:30 10° NNE
USA 245 4.4 20:45:55 81° WNW 20:45:55 81° WNW 20:51:35 10° NNW
Terra 3.6 20:49:57 24° NNE 20:49:57 24° NNE 20:52:04 10° N
Cosmos 2297 Rocket 3.6 20:43:44 10° WSW 20:48:56 36° NW 20:54:09 10° NNE
Nadezhda 3 Rocket 4.1 20:57:56 71° NW 20:57:56 71° NW 21:03:51 10° N
Resurs 01 Rocket 4.0 21:06:58 18° W 21:07:01 18° W 21:10:01 10° NW
Cosmos 1943 4.1 21:02:42 10° NNW 21:06:39 43° N 21:06:39 43° N
USA 234 4.0 21:16:03 42° NNE 21:16:47 44° NNE 21:22:55 10° NW
CZ-4C R/B 4.2 21:11:25 10° NNW 21:17:04 28° NNE 21:18:31 26° NE
ERS-1 Rocket 4.4 21:20:39 34° NW 21:20:39 34° NW 21:23:34 10° NNW
Cosmos 2263 Rocket 4.4 22:50:06 21° N 22:50:06 21° N 22:52:09 10° NNE
CZ-4C R/B 4.0 22:59:43 10° NW 23:03:40 38° NNW 23:03:40 38° NNW
